Погода в Кастелоризо

Греция     36°08′56″N   29°35′36″E
темп.,
°C
ветер,
м/с
пор.,
м/с
влажн.,
%
обл.,
%
осадки,
мм/ч
давл.,
гПа
погр.,
м
12 апреля, пн
пн1200:00+9всв32450 0.0 1019113
03:00+8ссв22440 0.0 101980
06:00+8св11480 0.0 1019156
09:00+11ююз22510 0.0 1020706
12:00+12ююз435953 0.0 10201025
15:00+11ююз326665 0.0 1020882
18:00+11ююз326460 0.0 1020753
21:00+9зсз12740 0.0 1021307
13 апреля, вт
вт1300:00+9с11731 0.0 1021123
03:00+9ссв11721 0.0 1021124
06:00+8ссв11710 0.0 1020113
09:00+12ю21590 0.0 1020389
12:00+13юз326425 0.0 1021628
15:00+13юз436321 0.0 1020653
18:00+13зюз32640 0.0 1019403
21:00+10ююз01720 0.0 1020198
14 апреля, ср
ср1400:00+10ссз11740 0.0 1021192
03:00+10всв1174100 0.0 1020149
06:00+10вюв1174100 0.0 1019180
09:00+13вюв446499 0.0 1019392
12:00+15ююв546495 0.0 1019564
15:00+15ю557281 0.0 1019585
18:00+14ююв337110 0.0 1018357
21:00+11вюв337727 0.0 1019168
15 апреля, чт
чт1500:00+11вюв226070 0.0 1018136
03:00+11в225310 0.0 1017122
06:00+11юв125854 0.0 1017144
09:00+14ююв22575 0.0 1017342
12:00+15ю43633 0.0 1018515
15:00+15ю33600 0.0 1017497
18:00+14юз11641 0.0 1016261
21:00+11с117028 0.0 101668
16 апреля, пт
пт1600:00+11ссв11665 0.0 101762
03:00+11с11565 0.0 101678
06:00+10ссв11445 0.0 101581
09:00+14юз2149100 0.0 1016238
12:00+15зюз325893 0.0 1016485
15:00+16зюз4460100 0.0 1016472
18:00+15з336895 0.0 1015298
21:00+13с33725 0.0 1016121